Regional Weather Roundup
Issued by NWS Austin/San Antonio, TX

Home | Current Version | Previous Version | Text Only | Print | Product List | Glossary On
Versions: 1 2 3 4 5 6 7 8 9 10 11 12 13 14 15 16 17 18 19 20 21 22 23 24 25 26 27 28 29 30 31 32 33 34 35 36 37 38 39 40 41 42 43 44 45 46 47 48 49 50
000
ASUS44 KEWX 200610
RWREWX
SOUTH TEXAS REGIONAL WEATHER ROUNDUP
NATIONAL WEATHER SERVICE AUSTIN/SAN ANTONIO TX
1200 AM CST MON NOV 20 2017

NOTE: "FAIR" INDICATED FEW OR NO CLOUDS BELOW 12,000 FEET WITH NO
SIGNIFICANT WEATHER AND/OR OBSTRUCTIONS TO VISIBILITY.

* - THESE STATIONS ARE NOT NWS OR FAA STATIONS...AND ARE NOT SUBJECT
    TO NWS AND FAA QUALITY CONTROL.

TXZ171-172-183>190-200700-
TEXAS HILL COUNTRY AND EDWARDS PLATEAU

CITY           SKY/WX    TMP DP  RH WIND       PRES   REMARKS
JUNCTION       CLOUDY    38  29  70 W3        30.21F
6HR MIN TEMP:  37; 6HR MAX TEMP:  53;

*LLANO         CLOUDY    37  32  81 CALM      30.26S
BURNET         CLOUDY    40  30  67 CALM      30.24S
6HR MIN TEMP:  40; 6HR MAX TEMP:  55;

*HORSESHOE BAY CLOUDY    37  32  81 CALM      30.23R
6HR MIN TEMP:  37; 6HR MAX TEMP:  49;

*KERRVILLE     PTCLDY    38  35  86 CALM      30.22S
6HR MIN TEMP:  38; 6HR MAX TEMP:  54;

*FREDERICKSBRG CLOUDY    36  31  83 CALM      30.22S
6HR MIN TEMP:  34; 6HR MAX TEMP:  52;

*ROCKSPRINGS   NOT AVBL
*BOERNE STAGE  PTCLDY    39  32  75 CALM      30.23F
*CASTROVILLE   PTCLDY    45  35  67 NW6       30.25R WCI  41
HONDO          PTCLDY    47  31  53 CALM      30.23R
6HR MIN TEMP:  43; 6HR MAX TEMP:  60;

*UVALDE        PTCLDY    45  34  67 E7        30.23F WCI  41
6HR MIN TEMP:  42; 6HR MAX TEMP:  57;

DEL RIO        PTCLDY    48  34  58 E6        30.19F WCI  45
6HR MIN TEMP:  47; 6HR MAX TEMP:  57;

LAUGHLIN AFB   MOCLDY    43  34  70 E6        30.19F WCI  39
6HR MIN TEMP:  43; 6HR MAX TEMP:  59;

CARRIZO SPRGS  MOCLDY    48  41  76 CALM      30.21F
*EAGLE PASS    CLEAR     48  37  66 SE5       30.20F WCI  46
$$

TXZ173-191>194-202-209-217>225-228-200700-
CENTRAL AND SOUTH CENTRAL TEXAS

CITY           SKY/WX    TMP DP  RH WIND       PRES   REMARKS
GEORGETOWN     MOCLDY    37  31  78 W5        30.25R WCI  33
6HR MIN TEMP:  37; 6HR MAX TEMP:  56;

AUSTIN/BERGSTM PTCLDY    42  38  85 CALM      30.23S
6HR MIN TEMP:  39; 6HR MAX TEMP:  59;

AUSTIN/MABRY   MOCLDY    43  34  70 CALM      30.24S
6HR MIN TEMP:  43; 6HR MAX TEMP:  57;

*AUSTIN/EXEC   MOCLDY    46  34  61 CALM      30.23S HAZE
*LAGO VISTA    PTCLDY    51  32  49 S3        30.23S
6HR MIN TEMP:  49; 6HR MAX TEMP:  55;

SAN MARCOS     PTCLDY    42  33  70 NW5       30.24F WCI  39
6HR MIN TEMP:  40; 6HR MAX TEMP:  53;

NEW BRAUNFELS  PTCLDY    44  35  70 NW6       30.22F WCI  41
6HR MIN TEMP:  41; 6HR MAX TEMP:  53;

RANDOLPH AFB   MOCLDY    45  37  73 NW5       30.22F WCI  43
6HR MIN TEMP:  45; 6HR MAX TEMP:  56;

PT SAN ANTONIO PTCLDY    47  35  64 CALM      30.20F
6HR MIN TEMP:  46; 6HR MAX TEMP:  57;

SAN ANTONIO    MOCLDY    48  36  63 NW5       30.22F WCI  46
6HR MIN TEMP:  47; 6HR MAX TEMP:  58;

STINSON FIELD  PTCLDY    48  35  60 CALM      30.20F
6HR MIN TEMP:  47; 6HR MAX TEMP:  61;

*LA GRANGE     CLOUDY    44  40  86 CALM      30.21S
6HR MIN TEMP:  44; 6HR MAX TEMP:  54;

*GIDDINGS      CLOUDY    44  37  78 CALM      30.24S
6HR MIN TEMP:  42; 6HR MAX TEMP:  55;

*GONZALES      CLOUDY    47  37  69 CALM      30.22F
6HR MIN TEMP:  47; 6HR MAX TEMP:  57;

$$

TXZ163>164-176>182-195>201-210>213-226-227-235-200700-
SOUTHEAST TEXAS

CITY           SKY/WX    TMP DP  RH WIND       PRES   REMARKS
COLLEGE STN    CLOUDY    50  33  52 NE5       30.22F WCI  48
6HR MIN TEMP:  48; 6HR MAX TEMP:  56;

*BRYAN         CLOUDY    44  36  72 CALM      30.24F
6HR MIN TEMP:  42; 6HR MAX TEMP:  56;

*CALDWELL      CLOUDY    44  36  73 CALM      30.23F
6HR MIN TEMP:  42; 6HR MAX TEMP:  54;

*CROCKETT        N/A    N/A N/A N/A MISG        N/A
*BRENHAM       CLOUDY    44  39  84 CALM      30.24F
6HR MIN TEMP:  43; 6HR MAX TEMP:  56;

HUNTSVILLE     PTCLDY    42  37  82 CALM      30.23F
6HR MIN TEMP:  42; 6HR MAX TEMP:  51;

CONROE         PTCLDY    39  38  96 CALM      30.23F
6HR MIN TEMP:  38; 6HR MAX TEMP:  50;

HOUSTON BUSH   MOCLDY    47  40  76 N3        30.23F
6HR MIN TEMP:  44; 6HR MAX TEMP:  58;

HOUSTON HOBBY  CLOUDY    50  39  66 CALM      30.22F
6HR MIN TEMP:  50; 6HR MAX TEMP:  59;

*HOUSTON SW AP PTCLDY    43  41  93 CALM      30.24F
6HR MIN TEMP:  42; 6HR MAX TEMP:  54;

PEARLAND       PTCLDY    49  42  77 CALM      30.24F
6HR MIN TEMP:  49; 6HR MAX TEMP:  57;

HOUSTON HOOKS  PTCLDY    43  42  97 CALM      30.23F
6HR MIN TEMP:  43; 6HR MAX TEMP:  53;

ELLINGTON FLD  NOT AVBL
SUGAR LAND     PTCLDY    47  42  83 CALM      30.22F
6HR MIN TEMP:  45; 6HR MAX TEMP:  56;

*HOUSTON EXEC  PTCLDY    45  39  81 CALM      30.24F
*CLEVELAND MUN PTCLDY    39  38  94 CALM      30.25S
6HR MIN TEMP:  39; 6HR MAX TEMP:  48;

*WHARTON       CLOUDY    48  38  70 CALM      30.24F
6HR MIN TEMP:  47; 6HR MAX TEMP:  56;

*COLUMBUS      FAIR      43  38  83 CALM      30.24S
6HR MIN TEMP:  42; 6HR MAX TEMP:  54;

*EAGLE LAKE    CLOUDY    46  39  76 CALM      30.23S
6HR MIN TEMP:  46; 6HR MAX TEMP:  58;

$$

TXZ214>216-236>238-200700-
THE UPPER TEXAS COAST

CITY           SKY/WX    TMP DP  RH WIND       PRES   REMARKS
*ORANGE        PTCLDY    39  39  99 CALM      30.26F
6HR MIN TEMP:  39; 6HR MAX TEMP:  55;

PORT ARTHUR    PTCLDY    47  38  71 NE6       30.22F WCI  44
6HR MIN TEMP:  44; 6HR MAX TEMP:  54;

GALVESTON      PTCLDY    58  37  45 NE8       30.24F
6HR MIN TEMP:  58; 6HR MAX TEMP:  62;

ANGLETON       CLOUDY    45  40  82 CALM      30.22F
6HR MIN TEMP:  45; 6HR MAX TEMP:  56;

*BAY CITY      CLOUDY    49  41  75 CALM      30.23F
PALACIOS       CLOUDY    49  41  74 NE6       30.22F WCI  46
6HR MIN TEMP:  49; 6HR MAX TEMP:  57;

$$

TXZ229>234-239>247-200700-
TEXAS COASTAL BEND AND RIO GRANDE PLAINS

CITY           SKY/WX    TMP DP  RH WIND       PRES   REMARKS
VICTORIA       CLOUDY    48  41  76 NE3       30.23F
6HR MIN TEMP:  48; 6HR MAX TEMP:  58;

*BEEVILLE      CLOUDY    52  41  66 E5        30.21F
6HR MIN TEMP:  52; 6HR MAX TEMP:  60;

ROCKPORT       PTCLDY    56  44  64 N5        30.22F
6HR MIN TEMP:  55; 6HR MAX TEMP:  60;

*PORT ARANSAS  NOT AVBL
*PORT LAVACA   CLOUDY    53  41  63 CALM      30.22F
6HR MIN TEMP:  51; 6HR MAX TEMP:  59;

*INGLESIDE     NOT AVBL
CORPUS CHRISTI CLOUDY    49  32  52 W3        30.22F
6HR MIN TEMP:  49; 6HR MAX TEMP:  60;

CORPUS NAS     CLOUDY    62  37  39 N6        30.21F
6HR MIN TEMP:  58; 6HR MAX TEMP:  63;

*ROBSTOWN      PTCLDY    51  38  59 CALM      30.22F
6HR MIN TEMP:  51; 6HR MAX TEMP:  61;

ALICE          CLOUDY    50  38  63 SW3       30.21F
6HR MIN TEMP:  49; 6HR MAX TEMP:  60;

KINGSVILLE NAS CLOUDY    49  40  71 CALM      30.22F
6HR MIN TEMP:  49; 6HR MAX TEMP:  60;

COTULLA        MOCLDY    51  33  50 SE5       30.22F
6HR MIN TEMP:  51; 6HR MAX TEMP:  61;

*FAITH RANCH   PTCLDY    52  39  62 E6        30.20F
LAREDO         MOCLDY    55  35  47 E7        30.22S
6HR MIN TEMP:  53; 6HR MAX TEMP:  63;

$$

TXZ248>255-200700-
DEEP SOUTH TEXAS

CITY           SKY/WX    TMP DP  RH WIND       PRES   REMARKS
BROWNSVILLE    CLOUDY    59  46  62 NW6       30.20F
6HR MIN TEMP:  58; 6HR MAX TEMP:  64;

PORT ISABEL    PTCLDY    57  47  69 NW7       30.19F
6HR MIN


USA.gov is the U.S. government's official web portal to all federal, state and local government web resources and services.